RH
71 91 90 75 62 63 67 62 60 48 47 48 42 39 33 27 22 27 29 37 45 47 46 54 62 63 64 63 62 55 53 53 58 63 73 73 73 69 66 65 76 83 82 79
68 81 72 64 56 63 69 71 63 55 32 32 38 40 35 28 22 19 20 25 36 41 48 55 59 62 66 63 64 62 59 56 60 62 66 66 69 66 64 73 85 86 86 85
67 60 63 63 51 60 60 66 56 50 33 30 35 47 36 26 25 20 19 18 25 38 42 47 56 58 60 63 65 65 63 61 63 64 65 69 69 74 81 90 86 89 86 88
53 45 64 76 63 50 59 42 39 41 37 49 37 53 37 30 29 23 20 19 19 29 41 39 49 56 57 58 58 61 63 63 64 65 69 76 76 78 71 78 87 84 80 85
60 50 58 73 71 58 61 51 56 47 40 40 35 41 34 27 29 27 22 22 20 20 25 34 43 48 51 58 61 61 61 64 64 69 70 74 77 70 62 66 78 83 92 89
55 42 42 49 52 45 48 60 64 42 39 60 43 40 38 32 27 24 20 19 21 19 20 21 28 39 42 49 61 65 62 63 64 68 72 72 73 74 77 79 85 92 93 93
58 51 41 38 54 51 58 65 93 87 72 66 34 42 36 30 23 20 18 16 18 19 20 20 21 28 32 43 54 61 64 64 64 69 70 71 72 72 74 76 79 83 94 95
87 90 53 42 45 60 63 61 74 85 76 55 40 44 31 24 22 19 16 15 17 19 23 26 23 26 26 32 39 46 60 63 64 69 70 71 73 72 70 69 70 73 77 80
73 57 43 43 48 47 61 74 43 51 75 51 33 28 24 29 20 20 20 20 18 17 19 23 26 24 25 34 40 42 42 55 57 67 69 74 75 82 80 75 72 71 74 79
45 54 46 44 44 47 53 48 68 61 78 62 34 32 27 24 18 17 18 18 19 20 23 25 26 25 28 31 34 43 46 48 50 57 70 77 84 87 88 85 82 78 77 77
35 43 54 43 46 52 55 63 49 50 49 59 52 30 18 20 19 17 17 16 17 20 22 26 31 35 37 42 42 48 55 56 58 55 53 71 80 88 91 91 86 84 79 76
38 47 56 50 38 36 39 47 46 58 67 44 46 40 22 19 19 16 16 18 20 26 29 32 38 49 54 54 52 56 61 63 62 64 64 66 65 82 91 83 79 76 79 71
42 55 78 54 40 44 44 41 45 39 45 76 64 39 20 19 18 18 21 20 22 33 34 43 49 50 56 57 59 62 66 69 72 72 74 76 80 83 86 86 79 76 74 69
47 55 46 52 37 35 46 44 46 48 56 45 41 32 22 17 16 17 20 22 24 30 36 42 49 53 56 58 57 60 67 71 77 77 77 80 82 83 83 79 77 77 68 68
41 71 46 32 34 34 37 41 40 46 39 41 32 29 23 18 17 15 16 17 23 24 32 36 43 50 53 59 59 64 66 74 76 77 80 81 82 80 79 80 80 79 72 70
42 82 46 68 39 39 44 39 37 37 35 31 28 27 18 17 16 16 17 18 20 22 23 30 45 50 57 58 61 67 65 75 77 76 82 79 82 86 89 86 84 81 78 76
53 72 83 68 58 55 72 51 39 33 28 28 32 26 21 21 20 22 21 19 20 22 24 28 34 44 52 56 59 64 67 75 81 86 89 88 86 87 87 84 81 79 76 70
63 67 99 86 78 71 44 24 30 32 29 26 24 24 27 24 21 24 23 23 22 22 23 28 33 35 52 56 63 60 70 82 90 91 91 89 87 87 83 82 82 80 74 71
49 59 87 80 75 48 38 42 33 34 30 27 28 26 25 26 27 23 24 24 23 24 31 35 39 40 47 58 62 75 87 87 89 88 88 87 85 90 84 85 78 73 75 75
57 44 62 90 73 72 31 36 32 27 45 23 28 30 30 32 33 24 33 39 40 46 50 52 53 55 61 63 74 85 86 87 86 86 86 83 84 94 89 81 80 79 79 80
84 84 74 78 74 86 61 49 32 62 54 55 41 31 33 36 26 40 49 56 61 62 64 62 58 61 62 79 85 86 85 87 80 88 88 87 84 94 85 83 78 86 85 85
72 80 81 84 76 75 47 46 42 39 50 50 47 46 46 40 48 57 57 63 66 67 70 76 76 77 74 83 88 89 86 83 93 92 91 91 92 90 90 90 89 87 87 88
70 51 78 64 64 50 48 52 50 47 53 53 53 54 46 50 51 55 61 67 72 76 82 82 87 87 79 94 97 97 93 94 96 96 94 95 94 94 94 92 90 88 89 83
68 66 64 68 61 52 54 50 49 43 46 48 54 52 50 55 61 69 74 79 82 90 92 92 93 93 93 93 94 98 99 98 96 98 96 94 92 95 94 85 83 85 85 81
68 73 86 87 71 62 58 52 53 56 59 61 64 62 55 62 70 73 84 90 89 90 91 91 93 92 92 90 91 94 94 96 100 100 94 97 93 94 91 85 83 78 80 76
88 71 56 55 60 57 59 57 59 60 58 62 63 70 76 73 73 80 88 88 89 91 92 92 92 92 92 92 92 93 93 94 96 96 91 88 87 87 83 82 82 74 74 73
Wind_Speed
5 4 11 20 17 11 11 10 12 4 3 1 8 17 20 17 8 12 13 13 14 16 15 16 17 16 16 16 16 17 16 16 12 10 9 8 9 9 8 8 10 8 7 9
5 6 6 10 11 12 15 13 11 5 5 6 8 17 15 17 12 14 15 14 16 14 15 16 17 17 17 17 18 17 17 17 14 11 10 8 9 9 10 8 8 9 10 9
10 6 9 14 12 13 7 14 10 3 3 3 4 17 19 14 15 15 14 15 13 17 18 17 18 19 18 20 19 18 19 18 16 16 10 8 7 5 6 6 8 9 11 11
4 6 14 10 8 13 7 6 9 7 3 5 9 9 12 14 21 14 15 16 16 17 17 16 18 18 20 19 18 19 19 19 17 18 14 15 12 11 10 10 8 9 14 10
7 13 17 16 10 8 4 8 5 1 2 2 7 7 8 3 14 18 15 16 18 16 19 19 20 19 19 17 17 17 19 19 19 17 17 13 14 10 9 9 11 10 7 8
6 3 12 9 11 5 13 8 7 3 2 8 11 11 10 11 15 17 17 17 17 19 18 18 16 13 16 15 15 16 19 19 19 18 19 19 18 15 11 10 9 7 6 5
4 8 4 12 15 10 5 12 4 2 5 8 2 12 15 10 11 16 17 17 16 18 14 14 15 13 16 17 16 15 17 19 19 19 19 20 20 18 18 15 11 12 7 4
8 6 10 9 16 12 15 10 4 7 6 3 2 12 5 11 14 11 11 10 6 8 10 11 14 12 12 12 14 17 17 18 18 19 20 16 18 12 13 14 11 10 11 11
11 6 6 13 8 15 9 9 4 1 3 2 5 7 10 8 9 10 13 8 13 9 9 10 9 13 14 13 15 16 17 16 18 18 16 16 15 13 11 14 13 10 9 8
11 8 7 6 13 4 12 15 6 4 5 6 5 6 10 3 11 9 9 10 10 7 7 9 10 11 11 13 14 15 17 17 15 15 15 13 12 12 11 10 11 12 10 13
8 5 6 9 14 18 11 12 6 5 5 4 3 4 4 7 5 8 7 6 7 7 7 7 7 6 8 9 11 13 14 14 12 12 13 14 13 11 10 9 9 10 11 13
5 7 8 22 3 6 17 13 16 7 7 5 2 8 2 4 2 3 4 5 5 6 7 7 7 6 5 7 9 11 12 12 11 10 11 11 11 11 10 13 13 12 12 12
12 6 8 7 5 3 18 12 18 6 1 8 6 10 3 2 3 6 9 9 6 7 5 4 6 6 6 7 8 8 8 9 8 8 9 9 10 11 11 10 12 12 12 12
9 4 9 13 11 13 15 24 20 18 7 14 16 25 11 6 5 5 7 9 10 7 4 4 5 6 7 8 9 10 9 8 7 7 9 10 10 9 7 8 10 11 12 13
7 8 7 3 6 11 15 19 22 23 28 17 27 26 19 17 17 16 11 7 8 7 6 7 7 7 9 9 9 8 8 7 7 8 9 9 6 6 6 8 8 8 10 10
4 3 6 1 5 5 7 17 24 29 29 24 29 25 12 11 18 18 17 14 14 11 10 10 9 10 11 10 9 8 9 9 9 10 10 7 8 7 7 8 9 9 9 10
11 7 6 11 4 5 4 26 24 24 29 31 26 33 11 13 12 13 12 11 11 10 11 10 10 8 8 10 11 13 12 10 10 9 7 8 8 9 9 9 10 11 11 12
17 12 3 4 5 12 12 15 18 22 18 23 24 21 5 15 16 12 9 11 9 10 8 9 8 8 8 9 10 9 9 9 9 9 9 9 10 10 10 11 11 11 11 13
8 10 6 7 10 12 13 3 10 12 19 20 24 20 14 5 4 14 12 12 12 5 4 5 7 9 6 7 8 8 8 9 10 11 10 10 11 11 12 13 13 11 11 10
4 13 8 6 15 20 6 14 12 8 26 11 13 16 14 11 9 14 3 2 4 5 4 5 6 6 6 5 7 8 8 9 13 11 12 11 11 12 13 12 12 10 10 10
7 7 18 9 11 6 5 6 17 15 6 5 5 15 11 11 11 3 3 4 2 4 5 7 7 7 7 1 5 7 7 13 9 6 7 9 10 11 12 11 9 9 9 9
11 11 10 6 13 21 8 8 18 7 0 3 1 2 9 5 5 4 5 3 4 7 6 6 6 7 7 3 3 4 8 3 4 7 8 9 9 8 8 12 10 11 11 12
10 9 8 13 9 1 9 3 4 2 2 3 3 2 7 7 4 5 4 4 7 8 6 4 4 5 6 5 2 4 3 5 5 6 7 8 8 8 8 11 10 9 9 9
5 3 5 5 7 5 7 3 2 2 2 2 4 3 3 9 7 7 5 5 5 4 5 4 5 6 6 5 4 3 2 3 5 6 6 6 8 8 7 7 7 9 9 9
3 10 6 1 2 7 1 4 7 7 7 8 6 3 8 9 7 7 5 5 5 4 3 3 5 5 6 7 6 4 2 3 3 4 5 6 6 8 8 8 8 9 10 11
5 5 10 7 11 2 6 10 9 9 8 8 10 7 6 6 8 6 7 5 4 5 5 6 6 5 6 6 6 6 4 2 3 3 4 5 6 7 7 8 7 9 8 13
Wind_Direction
191 153 194 174 176 146 159 189 214 183 185 185 241 251 258 271 246 246 231 221 218 217 204 205 207 208 203 199 199 200 197 199 192 193 191 204 207 203 205 215 203 200 202 203
142 185 161 165 153 152 165 181 208 216 160 207 252 263 256 259 250 248 242 229 224 217 213 205 205 206 212 207 205 204 203 200 198 198 198 200 200 212 208 203 199 196 204 197
160 152 144 154 144 140 178 197 179 183 185 216 292 274 251 245 236 251 240 244 236 219 217 209 205 207 210 214 209 207 206 205 203 206 199 203 200 201 201 197 209 210 205 199
142 158 143 151 162 153 156 146 120 107 191 239 200 273 234 234 230 214 241 229 231 222 225 214 211 210 214 215 213 214 209 209 207 202 201 202 204 206 213 205 196 199 202 196
129 152 159 167 175 188 127 141 138 191 234 292 203 258 260 242 235 229 223 234 233 228 222 213 212 213 210 210 214 213 214 212 208 204 204 203 212 215 218 216 202 196 181 192
125 147 171 173 153 126 141 99 45 52 339 255 224 226 240 225 223 229 227 214 224 224 229 228 216 213 215 211 211 211 215 216 213 211 211 211 213 213 210 206 199 185 172 177
142 158 137 154 135 137 111 135 102 178 200 244 65 222 248 248 240 232 228 220 209 220 218 224 219 205 215 209 205 208 211 217 213 213 214 216 217 216 218 214 208 177 170 182
152 188 179 168 175 171 168 172 150 189 200 243 142 234 250 254 243 248 250 248 230 231 222 214 215 222 232 220 207 205 206 215 210 213 218 217 219 222 221 220 211 205 187 186
163 138 146 180 135 145 164 204 121 58 113 269 227 275 251 269 270 263 260 274 258 247 242 230 221 222 222 216 215 213 211 212 209 214 216 216 216 213 219 218 211 202 180 164
167 123 211 152 148 176 187 155 168 204 209 236 237 271 254 263 243 240 249 243 250 245 249 248 232 223 220 220 217 209 210 207 205 207 209 211 208 207 208 199 191 182 169 159
152 108 150 161 204 174 158 181 202 177 221 244 284 256 242 279 271 259 270 238 238 264 258 262 276 252 239 227 217 208 206 197 194 199 200 208 209 199 181 178 175 169 158 164
167 109 147 192 89 236 206 197 185 197 182 235 38 264 230 167 229 275 268 284 302 302 291 276 267 258 232 230 220 201 201 197 197 199 204 210 208 196 185 191 180 170 165 172
165 127 113 147 222 190 210 198 204 200 72 202 203 253 191 151 225 236 277 292 309 302 286 277 266 241 219 209 205 213 204 205 196 197 207 207 205 200 196 185 172 174 161 161
126 147 181 186 195 157 199 202 201 204 210 216 223 244 212 244 255 216 224 240 250 263 303 287 253 242 226 215 203 202 210 210 197 193 204 207 205 197 190 176 167 162 160 155
158 193 200 206 148 176 196 198 193 202 225 215 240 247 236 246 255 280 294 279 276 271 247 253 253 235 226 221 212 205 210 196 194 196 207 212 187 174 151 155 151 139 154 148
208 164 146 116 145 171 184 196 201 210 221 229 245 257 255 255 236 249 264 267 268 277 268 252 241 237 227 221 215 203 210 201 188 199 202 179 165 148 154 147 149 143 147 144
180 155 127 217 109 109 287 215 200 211 218 219 234 240 262 243 238 240 238 248 247 260 264 265 254 247 230 215 208 212 205 185 194 193 176 168 164 166 162 155 153 157 160 156
190 184 91 111 131 221 261 190 206 212 221 228 248 255 238 239 248 263 246 249 254 255 271 279 278 261 235 219 206 212 189 181 181 190 179 178 173 168 161 162 169 163 168 170
209 164 155 171 212 275 257 173 169 188 245 223 233 248 244 237 279 265 242 224 238 271 313 295 299 286 263 216 202 180 178 180 191 199 190 184 179 174 172 176 175 170 167 168
178 186 173 159 214 233 112 174 149 140 262 212 224 248 219 176 232 248 138 134 93 47 21 337 315 283 262 232 169 168 183 188 212 201 196 184 182 178 182 181 177 173 173 166
152 165 201 200 226 261 234 175 155 193 285 199 206 246 205 203 214 58 82 68 17 91 26 342 322 303 300 233 163 191 185 213 213 189 180 183 186 186 182 173 170 161 161 151
166 166 196 204 229 248 159 164 184 220 124 143 149 275 189 174 114 92 58 24 33 39 40 10 346 345 337 339 174 191 220 217 164 163 173 183 186 182 173 172 164 167 165 166
192 199 172 196 209 108 187 124 62 59 145 150 140 199 158 133 126 108 89 26 23 27 14 2 15 1 12 355 276 219 239 165 159 162 179 180 174 174 175 174 169 166 171 173
222 183 206 149 182 182 163 106 107 105 119 116 123 142 138 122 117 96 81 60 45 20 6 345 13 26 3 350 328 280 259 157 157 175 177 170 174 174 177 181 180 182 182 181
166 145 168 196 89 90 131 147 136 112 109 102 67 45 103 111 91 94 84 54 47 30 344 3 27 6 2 345 341 342 303 158 165 160 163 173 181 182 183 196 191 196 199 196
203 172 192 210 165 144 147 148 141 130 126 123 114 81 45 79 95 93 81 61 40 22 353 13 25 15 359 351 344 340 325 230 167 177 190 196 187 185 189 189 187 213 206 204